When you browse on this site, cookies collect data to enhance your experience and personalize the content and advertising you see.
Visit our Privacy Policy to learn more. By continuing to use the site, you agree to this use of cookies and data.
  • în România
  • Lista ţărilor
  • Pe 7 zile
  • Temperatura apei
  • Hartă satelitară
  • Meteo pe hartă
  • Widget-uri
  • user-avatar
    Intrare

    Meteo pe oră la Ashanivka

    Astăzi, 18 Aprilie, Joi

    Timp Temperatura Precipitaţii Vânt Presiune Umiditate
    00:00 +5°C° 0 mm 3 m/s 760 mmHg 76%
    01:00 +5°C° 0 mm 3 m/s 760 mmHg 76%
    02:00 +5°C° 0 mm 2 m/s 760 mmHg 77%
    03:00 +5°C° 0 mm 2 m/s 760 mmHg 77%
    04:00 +4°C° 0 mm 2 m/s 760 mmHg 77%
    05:00 +4°C° 0 mm 2 m/s 760 mmHg 77%
    06:00 +6°C° 0 mm 2 m/s 760 mmHg 72%
    07:00 +7°C° 0 mm 2 m/s 761 mmHg 66%
    08:00 +9°C° 0 mm 2 m/s 761 mmHg 60%
    09:00 +10°C° 0 mm 3 m/s 761 mmHg 55%
    10:00 +11°C° 0 mm 3 m/s 761 mmHg 49%
    11:00 +12°C° 0 mm 3 m/s 761 mmHg 43%
    12:00 +12°C° 0 mm 3 m/s 760 mmHg 41%
    13:00 +14°C° 0 mm 2 m/s 760 mmHg 39%
    14:00 +14°C° 0 mm 2 m/s 759 mmHg 38%
    15:00 +14°C° 0 mm 2 m/s 759 mmHg 39%
    16:00 +14°C° 0 mm 2 m/s 759 mmHg 41%
    17:00 +14°C° 0 mm 2 m/s 758 mmHg 43%
    18:00 +13°C° 0 mm 2 m/s 758 mmHg 47%
    19:00 +12°C° 0 mm 1 m/s 758 mmHg 51%
    20:00 +11°C° 0 mm 1 m/s 758 mmHg 56%
    21:00 +11°C° 0.1 mm 1 m/s 757 mmHg 59%
    22:00 +10°C° 0.1 mm 1 m/s 757 mmHg 61%
    23:00 +10°C° 0.1 mm 1 m/s 757 mmHg 64%

    Mâine, 19 Aprilie, Vineri

    Timp Temperatura Precipitaţii Vânt Presiune Umiditate
    00:00 +10°C° 0.4 mm 1 m/s 757 mmHg 70%
    01:00 +9°C° 0.4 mm 1 m/s 756 mmHg 76%
    02:00 +9°C° 0.4 mm 1 m/s 756 mmHg 82%
    03:00 +8°C° 0.4 mm 1 m/s 756 mmHg 85%
    04:00 +8°C° 0.4 mm 1 m/s 756 mmHg 88%
    05:00 +7°C° 0.4 mm 1 m/s 756 mmHg 91%
    06:00 +6°C° 0.4 mm 2 m/s 757 mmHg 90%
    07:00 +7°C° 0.4 mm 2 m/s 757 mmHg 88%
    08:00 +7°C° 0.4 mm 3 m/s 757 mmHg 86%
    09:00 +8°C° 0.3 mm 3 m/s 758 mmHg 76%
    10:00 +9°C° 0.3 mm 3 m/s 758 mmHg 65%
    11:00 +10°C° 0.3 mm 4 m/s 758 mmHg 54%
    12:00 +11°C° 0 mm 4 m/s 758 mmHg 51%
    13:00 +12°C° 0 mm 3 m/s 759 mmHg 48%
    14:00 +12°C° 0 mm 3 m/s 759 mmHg 44%
    15:00 +12°C° 0 mm 3 m/s 759 mmHg 45%
    16:00 +12°C° 0 mm 3 m/s 759 mmHg 46%
    17:00 +12°C° 0 mm 3 m/s 759 mmHg 46%
    18:00 +11°C° 0.1 mm 3 m/s 759 mmHg 53%
    19:00 +9°C° 0.1 mm 2 m/s 760 mmHg 59%
    20:00 +8°C° 0.1 mm 2 m/s 760 mmHg 65%
    21:00 +7°C° 0 mm 2 m/s 760 mmHg 67%
    22:00 +7°C° 0 mm 2 m/s 760 mmHg 70%
    23:00 +6°C° 0 mm 2 m/s 760 mmHg 72%

    Poimâine, 20 Aprilie, Sâmbătă

    Timp Temperatura Precipitaţii Vânt Presiune Umiditate
    00:00 +6°C° 0 mm 2 m/s 760 mmHg 74%
    01:00 +5°C° 0 mm 2 m/s 760 mmHg 75%
    02:00 +5°C° 0 mm 2 m/s 760 mmHg 77%
    03:00 +5°C° 0 mm 2 m/s 760 mmHg 78%
    04:00 +4°C° 0 mm 2 m/s 760 mmHg 78%
    05:00 +4°C° 0 mm 2 m/s 760 mmHg 79%
    06:00 +6°C° 0 mm 2 m/s 760 mmHg 73%
    07:00 +7°C° 0 mm 2 m/s 760 mmHg 66%
    08:00 +10°C° 0 mm 1 m/s 760 mmHg 60%
    09:00 +10°C° 0.1 mm 2 m/s 760 mmHg 54%
    10:00 +12°C° 0.1 mm 2 m/s 760 mmHg 48%
    11:00 +13°C° 0.1 mm 2 m/s 760 mmHg 42%
    12:00 +13°C° 0 mm 1 m/s 760 mmHg 42%
    13:00 +13°C° 0 mm 1 m/s 760 mmHg 42%
    14:00 +13°C° 0 mm 1 m/s 759 mmHg 42%
    15:00 +13°C° 0 mm 1 m/s 759 mmHg 43%
    16:00 +13°C° 0 mm 1 m/s 759 mmHg 43%
    17:00 +13°C° 0 mm 1 m/s 759 mmHg 44%
    18:00 +12°C° 0 mm 1 m/s 759 mmHg 47%
    19:00 +11°C° 0 mm 1 m/s 759 mmHg 49%
    20:00 +11°C° 0 mm 1 m/s 759 mmHg 52%
    21:00 +10°C° 0 mm 1 m/s 759 mmHg 53%
    22:00 +10°C° 0 mm 1 m/s 759 mmHg 54%
    23:00 +10°C° 0 mm 1 m/s 759 mmHg 55%

    21 Aprilie, Duminică

    Timp Temperatura Precipitaţii Vânt Presiune Umiditate
    00:00 +9°C° 0 mm 1 m/s 759 mmHg 56%
    01:00 +9°C° 0 mm 1 m/s 759 mmHg 57%
    02:00 +8°C° 0 mm 1 m/s 759 mmHg 58%
    03:00 +8°C° 0 mm 1 m/s 759 mmHg 58%
    04:00 +8°C° 0 mm 1 m/s 758 mmHg 58%
    05:00 +8°C° 0 mm 1 m/s 758 mmHg 58%
    06:00 +9°C° 0 mm 1 m/s 759 mmHg 55%
    07:00 +10°C° 0 mm 1 m/s 759 mmHg 52%
    08:00 +10°C° 0 mm 2 m/s 759 mmHg 50%
    09:00 +12°C° 0 mm 2 m/s 759 mmHg 46%
    10:00 +13°C° 0 mm 2 m/s 759 mmHg 43%
    11:00 +12°C° 0 mm 3 m/s 759 mmHg 40%
    12:00 +12°C° 0 mm 3 m/s 759 mmHg 39%
    13:00 +13°C° 0 mm 3 m/s 759 mmHg 39%
    14:00 +13°C° 0 mm 3 m/s 759 mmHg 38%
    15:00 +13°C° 0 mm 3 m/s 759 mmHg 39%
    16:00 +13°C° 0 mm 3 m/s 759 mmHg 40%
    17:00 +12°C° 0 mm 3 m/s 759 mmHg 41%
    18:00 +11°C° 0 mm 3 m/s 759 mmHg 45%
    19:00 +10°C° 0 mm 2 m/s 759 mmHg 48%
    20:00 +9°C° 0 mm 2 m/s 759 mmHg 52%
    21:00 +9°C° 0 mm 2 m/s 759 mmHg 53%
    22:00 +9°C° 0 mm 2 m/s 759 mmHg 54%
    23:00 +9°C° 0 mm 2 m/s 760 mmHg 55%

    22 Aprilie, Luni

    Timp Temperatura Precipitaţii Vânt Presiune Umiditate
    00:00 +9°C° 0 mm 2 m/s 760 mmHg 55%
    01:00 +8°C° 0 mm 2 m/s 760 mmHg 56%
    02:00 +8°C° 0 mm 2 m/s 760 mmHg 57%
    03:00 +8°C° 0 mm 2 m/s 760 mmHg 58%
    04:00 +8°C° 0 mm 2 m/s 760 mmHg 59%
    05:00 +7°C° 0 mm 2 m/s 760 mmHg 61%
    06:00 +9°C° 0 mm 3 m/s 760 mmHg 58%
    07:00 +10°C° 0 mm 3 m/s 760 mmHg 55%
    08:00 +11°C° 0 mm 4 m/s 761 mmHg 52%
    09:00 +12°C° 0 mm 4 m/s 761 mmHg 48%
    10:00 +13°C° 0 mm 4 m/s 761 mmHg 43%
    11:00 +14°C° 0 mm 5 m/s 761 mmHg 39%
    12:00 +14°C° 0 mm 4 m/s 761 mmHg 39%
    13:00 +14°C° 0 mm 4 m/s 761 mmHg 39%
    14:00 +14°C° 0 mm 4 m/s 761 mmHg 39%
    15:00 +14°C° 0 mm 4 m/s 761 mmHg 41%
    16:00 +14°C° 0 mm 3 m/s 761 mmHg 43%
    17:00 +14°C° 0 mm 3 m/s 761 mmHg 45%
    18:00 +13°C° 0 mm 3 m/s 761 mmHg 48%
    19:00 +12°C° 0 mm 3 m/s 762 mmHg 51%
    20:00 +11°C° 0 mm 3 m/s 762 mmHg 54%
    21:00 +11°C° 0 mm 3 m/s 762 mmHg 56%
    22:00 +10°C° 0 mm 3 m/s 762 mmHg 58%
    23:00 +9°C° 0 mm 3 m/s 762 mmHg 60%

    23 Aprilie, Marţi

    Timp Temperatura Precipitaţii Vânt Presiune Umiditate
    00:00 +9°C° 0 mm 3 m/s 763 mmHg 59%
    01:00 +9°C° 0 mm 3 m/s 763 mmHg 59%
    02:00 +9°C° 0 mm 3 m/s 763 mmHg 58%
    03:00 +9°C° 0 mm 3 m/s 763 mmHg 59%
    04:00 +9°C° 0 mm 3 m/s 763 mmHg 59%
    05:00 +9°C° 0 mm 3 m/s 764 mmHg 59%
    06:00 +10°C° 0 mm 3 m/s 764 mmHg 57%
    07:00 +11°C° 0 mm 3 m/s 764 mmHg 54%
    08:00 +12°C° 0 mm 3 m/s 764 mmHg 52%
    09:00 +13°C° 0 mm 3 m/s 764 mmHg 47%
    10:00 +14°C° 0 mm 4 m/s 764 mmHg 42%
    11:00 +15°C° 0 mm 4 m/s 765 mmHg 37%
    12:00 +15°C° 0 mm 4 m/s 764 mmHg 38%
    13:00 +16°C° 0 mm 3 m/s 764 mmHg 38%
    14:00 +16°C° 0 mm 3 m/s 764 mmHg 38%
    15:00 +16°C° 0 mm 3 m/s 764 mmHg 39%
    16:00 +16°C° 0 mm 3 m/s 764 mmHg 41%
    17:00 +16°C° 0 mm 3 m/s 763 mmHg 42%
    18:00 +13°C° 0 mm 3 m/s 763 mmHg 47%
    19:00 +12°C° 0 mm 3 m/s 764 mmHg 52%
    20:00 +10°C° 0 mm 2 m/s 764 mmHg 56%
    21:00 +10°C° 0 mm 2 m/s 764 mmHg 58%
    22:00 +9°C° 0 mm 2 m/s 764 mmHg 59%
    23:00 +9°C° 0 mm 2 m/s 764 mmHg 60%
    Arată mai mult